• Join FlightAware (Why Join?)
  • Login
  • US Flag 
08:04AM EDT


 

Airport Tracker/Info


-or-


 

Live Flight TrackerFlight Track Log ✈ BAW826 ✈ 16-May-2013 ✈ EGLL / LHR - EIDW / DUB

Flight Track Log - Related Links

Times and Time Zones

All times are in EDT time to prevent confusion due to time zone crossing. See the BAW826 flight status page for this flight to view local times or setup timezone preferences in your user account.

Time Position Orientation Groundspeed Altitude Reporting Facility
EDT Latitude Longitude Course Direction KTS MPH feet Rate Location/Type
05:31PM 51.4760 -0.4710 270° West 400  Level FlightAware
05:34PM 51.5963 -0.7932 301° West  Level Estimated
05:34PM 51.4760 -0.4760 301° West 400  Level FlightAware
05:36PM 51.5572 -0.6927 301° West  Level Estimated
05:39PM 51.5768 -0.7484 301° West  Level Estimated
05:39PM 51.4760 -0.4800 301° West 400  Level FlightAware
05:43PM 51.5572 -0.6986 301° West  Level Estimated
05:44PM 51.6043 -0.8252 301° West  Level Estimated
05:44PM 51.4760 -0.4830 301° West 400  Level FlightAware
05:50PM 51.5808 -0.7668 301° West  Level Estimated
05:51PM 51.6279 -0.8935 301° West  Level Estimated
05:52PM 51.6749 -1.0204 301° West  Level Estimated
05:53PM 51.7217 -1.1476 301° West  Level Estimated
05:56PM 51.4777 -0.4433 91° East 156 180 1,500  Level FlightAware ADS-B
05:56PM 51.4775 -0.4225 91° East 170 196 500 1,860 Descending FlightAware UK
05:57PM 51.4776 -0.4168 91° East 174 200 2,200 7,560 Climbing FlightAware ADS-B
05:57PM 51.4771 -0.4032 93° East 186 214 2,400 1,380 Climbing FlightAware ADS-B
05:57PM 51.4765 -0.3992 103° East 190 219 2,500 1,500 Climbing FlightAware ADS-B
05:57PM 51.4754 -0.3937 108° East 200 230 2,600 1,500 Climbing FlightAware ADS-B
05:57PM 51.4729 -0.3873 122° Southeast 204 235 2,700 1,320 Climbing FlightAware ADS-B
05:57PM 51.4701 -0.3827 134° Southeast 211 243 2,800 1,500 Climbing FlightAware ADS-B
05:57PM 51.4678 -0.3798 142° Southeast 215 247 2,900 1,980 Climbing FlightAware ADS-B
05:57PM 51.4654 -0.3772 146° Southeast 221 254 3,000 2,520 Climbing FlightAware ADS-B
05:57PM 51.4615 -0.3746 157° South 225 259 3,200 2,520 Climbing FlightAware ADS-B
05:57PM 51.4585 -0.3729 161° South 232 267 3,300 1,680 Climbing FlightAware ADS-B
05:57PM 51.4532 -0.3716 171° South 238 274 3,400 2,220 Climbing FlightAware ADS-B
05:57PM 51.4497 -0.3715 179° South 244 281 3,600 2,220 Climbing FlightAware ADS-B
05:57PM 51.4452 -0.3723 186° South 248 285 3,700 2,520 Climbing FlightAware ADS-B
05:57PM 51.4418 -0.3739 196° South 252 290 3,900 3,420 Climbing FlightAware ADS-B
05:57PM 51.4365 -0.3775 203° Southwest 256 295 4,100 3,300 Climbing FlightAware ADS-B
05:58PM 51.4323 -0.3814 210° Southwest 259 298 4,400 3,300 Climbing FlightAware ADS-B
05:58PM 51.4284 -0.3860 216° Southwest 261 300 4,600 3,780 Climbing FlightAware ADS-B
05:58PM 51.4142 -0.4045 219° Southwest 265 305 5,600 4,020 Climbing FlightAware ADS-B
05:58PM 51.4021 -0.4211 221° Southwest 269 310 6,500 3,780 Climbing FlightAware ADS-B
05:58PM 51.3965 -0.4293 223° Southwest 273 314 6,800 3,000 Climbing FlightAware ADS-B
05:58PM 51.3933 -0.4353 230° Southwest 275 316 7,000 3,300 Climbing FlightAware ADS-B
05:58PM 51.3898 -0.4442 238° Southwest 279 321 7,300 4,500 Climbing FlightAware ADS-B
05:58PM 51.3882 -0.4498 245° Southwest 281 323 7,600 4,980 Climbing FlightAware ADS-B
05:58PM 51.3868 -0.4557 249° West 282 325 7,800 3,960 Climbing FlightAware ADS-B
05:58PM 51.3857 -0.4638 258° West 284 327 8,000 3,960 Climbing FlightAware ADS-B
05:59PM 51.3854 -0.4702 266° West 285 328 8,200 3,420 Climbing FlightAware ADS-B
05:59PM 51.3852 -0.4763 267° West 285 328 8,400 3,720 Climbing FlightAware ADS-B
05:59PM 51.3858 -0.4870 275° West 286 329 8,700 3,960 Climbing FlightAware ADS-B
05:59PM 51.3874 -0.4972 284° West 290 334 9,000 3,000 Climbing FlightAware ADS-B
05:59PM 51.3917 -0.5181 288° West 300 345 9,500 1,800 Climbing FlightAware ADS-B
05:59PM 51.3991 -0.5504 290° West 322 371 9,800 780 Climbing FlightAware ADS-B
05:59PM 51.4072 -0.5852 290° West 339 390 9,900 360 Climbing FlightAware ADS-B
06:00PM 51.4159 -0.6232 290° West 344 396 10,000 -2,520 Climbing FlightAware ADS-B
06:00PM 51.4265 -0.6695 290° West 330 380 8,500  Descending FlightAware UK
06:00PM 51.4321 -0.6950 290° West 344 396 10,000  Climbing FlightAware ADS-B
06:01PM 51.4428 -0.7416 290° West 332 382 8,500  Descending FlightAware UK
06:01PM 51.4487 -0.7690 290° West 343 395 10,000 3,180 Climbing FlightAware ADS-B
06:01PM 51.4568 -0.8048 290° West 342 394 10,000 -2,100 Level FlightAware ADS-B
06:01PM 51.4684 -0.8561 290° West 350 403 8,800 1,500 Descending FlightAware UK
06:01PM 51.4739 -0.8814 290° West 367 422 10,800 3,000 Climbing FlightAware ADS-B
06:02PM 51.4858 -0.9338 290° West 362 417 10,300 3,000 Descending FlightAware UK
06:02PM 51.4912 -0.9592 290° West 377 434 12,300 1,980 Climbing FlightAware ADS-B
06:02PM 51.5034 -1.0135 290° West 366 421 11,300 1,320 Descending FlightAware UK
06:03PM 51.5094 -1.0412 290° West 381 438 13,000 360 Climbing FlightAware ADS-B
06:03PM 51.5210 -1.0921 290° West 370 426 11,500  Descending FlightAware UK
06:03PM 51.5280 -1.1236 290° West 380 437 13,000  Climbing FlightAware ADS-B
06:03PM 51.5390 -1.1717 290° West 368 423 11,500  Descending FlightAware UK
06:03PM 51.5431 -1.1900 290° West 382 440 13,000 480 Climbing FlightAware ADS-B
06:04PM 51.5533 -1.2356 290° West 370 426 11,700 1,560 Descending FlightAware UK
06:04PM 51.5599 -1.2707 290° West 386 444 13,800 2,400 Climbing FlightAware ADS-B
06:04PM 51.5693 -1.3174 290° West 378 435 12,900 2,880 Descending FlightAware UK
06:04PM 51.5769 -1.3554 290° West 388 447 15,300 3,000 Climbing FlightAware ADS-B
06:05PM 51.5859 -1.3997 290° West 382 440 14,400 2,280 Descending FlightAware UK
06:05PM 51.5944 -1.4415 290° West 401 461 16,500 2,160 Climbing FlightAware ADS-B
06:05PM 51.6070 -1.5018 290° West 392 451 15,700 2,280 Descending FlightAware UK
06:05PM 51.6129 -1.5303 290° West 409 471 17,700 2,400 Climbing FlightAware ADS-B
06:06PM 51.6248 -1.5880 290° West 398 458 16,900 2,580 Descending FlightAware UK
06:06PM 51.6308 -1.6175 290° West 415 478 19,000 2,580 Climbing FlightAware ADS-B
06:06PM 51.6429 -1.6757 290° West 402 463 18,200 2,100 Descending FlightAware UK
06:07PM 51.6493 -1.7089 290° West 422 486 20,100 2,040 Climbing FlightAware ADS-B
06:07PM 51.6609 -1.7647 290° West 408 470 19,200 1,980 Descending FlightAware UK
06:07PM 51.6682 -1.8022 290° West 431 496 21,100 2,280 Climbing FlightAware ADS-B
06:07PM 51.6794 -1.8565 290° West 420 483 20,400 2,700 Descending FlightAware UK
06:08PM 51.6869 -1.8930 290° West 428 493 22,500 1,860 Climbing FlightAware ADS-B
06:08PM 51.6979 -1.9465 290° West 420 483 21,300 1,200 Descending FlightAware UK
06:08PM 51.7061 -1.9881 290° West 440 506 23,100 1,500 Climbing FlightAware ADS-B
06:08PM 51.7168 -2.0408 290° West 436 502 22,100 2,460 Descending FlightAware UK
06:09PM 51.7248 -2.0815 290° West 434 499 24,400 2,880 Climbing FlightAware ADS-B
06:09PM 51.7351 -2.1318 290° West 432 497 23,500 1,980 Descending FlightAware UK
06:09PM 51.7436 -2.1761 290° West 435 501 25,400 960 Climbing FlightAware ADS-B
06:09PM 51.7534 -2.2240 290° West 442 509 24,000 960 Descending FlightAware UK
06:10PM 51.7624 -2.2705 290° West 449 517 25,900 1,500 Climbing FlightAware ADS-B
06:10PM 51.7760 -2.3390 290° West 452 520 24,900 1,500 Descending FlightAware UK
06:10PM 51.7820 -2.3695 290° West 451 519 26,700 1,380 Climbing FlightAware ADS-B
06:10PM 51.7948 -2.4339 290° West 456 525 25,600 1,320 Descending FlightAware UK
06:11PM 51.8021 -2.4692 290° West 460 529 27,400 4,200 Climbing FlightAware ADS-B
06:11PM 51.8162 -2.5271 292° West 466 536 27,700 -1,680 Climbing FlightAware ADS-B
06:11PM 51.8339 -2.5884 292° West 462 532 26,400 660 Descending FlightAware UK
06:11PM 51.8409 -2.6095 292° West 478 550 28,000 1,200 Climbing FlightAware ADS-B
06:12PM 51.8604 -2.6618 292° West 460 529 26,900 -1,260 Descending FlightAware UK
06:12PM 51.8819 -2.7165 302° West 462 532 27,300 4,440 Climbing FlightAware UK
06:12PM 51.8965 -2.7526 302° West 480 552 29,200 1,800 Climbing FlightAware ADS-B
06:12PM 51.9185 -2.8068 302° West 460 529 28,200 1,500 Descending FlightAware UK
06:13PM 51.9348 -2.8484 302° West 477 549 30,000 600 Climbing FlightAware ADS-B
06:13PM 51.9543 -2.8968 302° West 458 527 28,500 -2,760 Descending FlightAware UK
06:13PM 51.9755 -2.9510 302° West 458 527 28,500 2,760 Level FlightAware UK
06:13PM 51.9901 -2.9904 302° West 478 550 30,000  Climbing FlightAware ADS-B
06:14PM 52.0104 -3.0419 302° West 460 529 28,500  Descending FlightAware UK
06:14PM 52.0251 -3.0813 302° West 476 548 30,000  Climbing FlightAware ADS-B
06:14PM 52.0451 -3.1322 302° West 460 529 28,500  Descending FlightAware UK
06:14PM 52.0625 -3.1781 302° West 477 549 30,000  Climbing FlightAware ADS-B
06:15PM 52.0869 -3.2404 302° West 460 529 28,500  Descending FlightAware UK
06:15PM 52.0997 -3.2747 302° West 476 548 30,000  Climbing FlightAware ADS-B
06:15PM 52.1220 -3.3319 302° West 460 529 28,500  Descending FlightAware UK
06:15PM 52.1344 -3.3656 302° West 476 548 30,000  Climbing FlightAware ADS-B
06:16PM 52.1564 -3.4224 302° West 460 529 28,500  Descending FlightAware UK
06:16PM 52.1703 -3.4600 302° West 476 548 30,000  Climbing FlightAware ADS-B
06:16PM 52.1910 -3.5136 302° West 460 529 28,500 -2,880 Descending FlightAware UK
06:17PM 52.2119 -3.5684 302° West 460 529 28,400 -180 Descending FlightAware UK
06:17PM 52.2327 -3.6233 302° West 460 529 28,400 3,420 Level FlightAware UK
06:17PM 52.2380 -3.6370 302° West 477 549 30,000  Climbing FlightAware
06:17PM 52.2672 -3.7144 302° West 460 529 28,400 -2,580 Descending FlightAware UK
06:18PM 52.2879 -3.7697 302° West 460 529 28,400 4,800 Level FlightAware UK
06:18PM 52.2850 -3.7620 302° West 477 549 30,000  Climbing FlightAware
06:18PM 52.3085 -3.8249 302° West 460 529 28,400 -2,700 Descending FlightAware UK
06:18PM 52.3292 -3.8801 302° West 460 529 28,500 -180 Climbing FlightAware UK
06:19PM 52.3498 -3.9353 301° West 458 527 28,300 -840 Descending FlightAware UK
06:19PM 52.3703 -3.9898 302° West 458 527 28,000 3,120 Descending FlightAware UK
06:19PM 52.3710 -3.9920 302° West 476 548 29,500 -1,020 Climbing FlightAware
06:19PM 52.3977 -4.0636 302° West 460 529 27,600 -3,600 Descending FlightAware UK
06:20PM 52.4181 -4.1195 301° West 462 532 27,300 -1,020 Descending FlightAware UK
06:20PM 52.4390 -4.1756 301° West 462 532 27,000 -1,020 Descending FlightAware UK
06:20PM 52.4600 -4.2320 301° West 460 529 26,700 -1,020 Descending FlightAware UK
06:20PM 52.4804 -4.2868 301° West 462 532 26,400 -1,020 Descending FlightAware UK
06:21PM 52.5008 -4.3417 301° West 458 527 26,100 -840 Descending FlightAware UK
06:21PM 52.5211 -4.3966 301° West 462 532 25,900 -840 Descending FlightAware UK
06:21PM 52.5408 -4.4503 301° West 458 527 25,600 -1,020 Descending FlightAware UK
06:22PM 52.5605 -4.5045 301° West 458 527 25,300 -1,020 Descending FlightAware UK
06:22PM 52.5804 -4.5591 301° West 462 532 25,000 -1,020 Descending FlightAware UK
06:22PM 52.6003 -4.6137 301° West 460 529 24,700 -1,020 Descending FlightAware UK
06:23PM 52.6200 -4.6683 301° West 460 529 24,400 -1,020 Descending FlightAware UK
06:23PM 52.6399 -4.7226 301° West 460 529 24,100 -1,020 Descending FlightAware UK
06:23PM 52.6618 -4.7746 305° West 462 532 23,800 -840 Descending FlightAware UK
06:23PM 52.6853 -4.8244 308° West 460 529 23,600 -840 Descending FlightAware UK
06:24PM 52.7108 -4.8712 312° West 464 534 23,300 -1,020 Descending FlightAware UK
06:24PM 52.7363 -4.9158 313° West 460 529 23,000 -1,020 Descending FlightAware UK
06:24PM 52.7624 -4.9603 314° West 458 527 22,700 -1,020 Descending FlightAware UK
06:25PM 52.7884 -5.0054 314° West 462 532 22,400 -1,020 Descending FlightAware UK
06:25PM 52.8145 -5.0510 313° West 462 532 22,100 -1,020 Descending FlightAware UK
06:25PM 52.8404 -5.0976 313° West 464 534 21,800 -1,020 Descending FlightAware UK
06:26PM 52.8661 -5.1442 312° West 462 532 21,500 -1,020 Descending FlightAware UK
06:26PM 52.8919 -5.1906 313° West 464 534 21,200 -1,020 Descending FlightAware UK
06:26PM 52.9176 -5.2369 313° West 458 527 20,900 -1,500 Descending FlightAware UK
06:26PM 52.9432 -5.2829 313° West 444 511 20,300 1,980 Descending FlightAware UK
06:27PM 52.9450 -5.2870 313° West 440 506 21,800 -1,800 Climbing FlightAware
06:27PM 52.9761 -5.3427 313° West 436 502 19,600 -5,100 Descending FlightAware UK
06:27PM 53.0012 -5.3883 312° West 434 499 19,000 -2,220 Descending FlightAware UK
06:27PM 53.0261 -5.4339 312° West 430 495 18,300 -2,220 Descending FlightAware UK
06:28PM 53.0511 -5.4791 313° West 426 490 17,700 3,780 Descending FlightAware UK
06:28PM 53.0420 -5.4640 313° West 438 504 19,500 -2,340 Climbing FlightAware
06:28PM 53.0781 -5.5203 313° West 420 483 17,000 -5,340 Descending FlightAware UK
06:28PM 53.1072 -5.5581 322° Northwest 418 481 16,400 2,340 Descending FlightAware UK
06:28PM 53.1050 -5.5560 322° Northwest 444 511 17,900 -2,520 Climbing FlightAware
06:29PM 53.1464 -5.6070 322° Northwest 408 470 15,400 -5,040 Descending FlightAware UK
06:29PM 53.1748 -5.6424 323° Northwest 400 460 14,800 1,800 Descending FlightAware UK
06:29PM 53.1770 -5.6450 323° Northwest 421 484 16,200 -2,280 Climbing FlightAware
06:29PM 53.2116 -5.6884 323° Northwest 388 447 13,900 -5,340 Descending FlightAware UK
06:30PM 53.2381 -5.7226 322° Northwest 382 440 13,200 2,220 Descending FlightAware UK
06:30PM 53.2380 -5.7220 322° Northwest 395 455 14,800 -1,260 Climbing FlightAware
06:30PM 53.2724 -5.7680 322° Northwest 364 419 12,700 -5,040 Descending FlightAware UK
06:30PM 53.2971 -5.8003 322° Northwest 356 410 11,800 1,080 Descending FlightAware UK
06:31PM 53.3010 -5.8050 322° Northwest 369 425 13,200 -3,000 Climbing FlightAware
06:31PM 53.3294 -5.8423 322° Northwest 350 403 10,600 -6,240 Descending FlightAware UK
06:31PM 53.3537 -5.8736 322° Northwest 350 403 9,800 1,920 Descending FlightAware UK
06:31PM 53.3550 -5.8750 322° Northwest 367 422 11,400 -1,800 Climbing FlightAware
06:32PM 53.3865 -5.9125 322° Northwest 342 394 9,100 -5,340 Descending FlightAware UK
06:32PM 53.4121 -5.9371 330° Northwest 342 394 8,300 2,040 Descending FlightAware UK
06:32PM 53.4110 -5.9360 330° Northwest 355 409 9,900 -2,040 Climbing FlightAware
06:32PM 53.4459 -5.9704 330° Northwest 338 389 7,500 -2,040 Descending FlightAware UK
06:32PM 53.4540 -5.9780 330° Northwest 338 389 8,900 -2,220 Climbing FlightAware
06:33PM 53.4871 -6.0106 330° Northwest 330 380 6,400 -2,040 Descending FlightAware UK
06:33PM 53.4960 -6.0190 330° Northwest 333 383 7,900 3,960 Climbing FlightAware
06:33PM 53.5060 -6.0290 329° Northwest 320 368 7,800 -4,800 Descending FlightAware
06:33PM 53.5334 -6.0559 329° Northwest 302 348 5,900 -1,020 Descending FlightAware UK
06:34PM 53.5450 -6.0670 330° Northwest 298 343 7,300 -720 Climbing FlightAware
06:34PM 53.5550 -6.0770 330° Northwest 290 334 5,700 -7,200 Descending FlightAware UK
06:34PM 53.5693 -6.0911 330° Northwest 282 325 5,500 2,880 Descending FlightAware UK
06:34PM 53.5810 -6.1020 330° Northwest 284 327 7,000 -720 Climbing FlightAware
06:34PM 53.5895 -6.1106 330° Northwest 270 311 5,300 -7,200 Descending FlightAware UK
06:34PM 53.6027 -6.1238 330° Northwest 262 302 5,200 2,880 Descending FlightAware UK
06:35PM 53.6130 -6.1340 330° Northwest 265 305 6,600 -600 Climbing FlightAware
06:35PM 53.6339 -6.1544 330° Northwest 246 283 4,900 -420 Descending FlightAware UK
06:35PM 53.6280 -6.1490 330° Northwest 250 288 6,500 -360 Climbing FlightAware
06:35PM 53.6516 -6.1723 330° Northwest 238 274 4,800 -480 Descending FlightAware UK
06:35PM 53.6540 -6.1740 330° Northwest 241 277 6,300 -540 Climbing FlightAware
06:36PM 53.6740 -6.1951 330° Northwest 1 1 4,600 -420 Descending FlightAware UK
06:36PM 53.6810 -6.2010 330° Northwest 226 260 6,100 -600 Climbing FlightAware
06:36PM 53.6997 -6.2262 330° Northwest 1 1 4,300 -720 Descending FlightAware UK
06:36PM 53.7010 -6.2330 330° Northwest 231 266 5,800 3,600 Climbing FlightAware
06:36PM 53.7040 -6.2590 330° Northwest 236 272 5,700 -6,420 Descending FlightAware
06:36PM 53.7023 -6.2699 330° Northwest 1 1 4,100 -6,360 Descending FlightAware UK
06:37PM 53.6948 -6.3006 330° Northwest 1 1 3,700 2,700 Descending FlightAware UK
06:37PM 53.6950 -6.3030 330° Northwest 232 267 5,200 -1,500 Climbing FlightAware
06:37PM 53.6845 -6.3411 330° Northwest 1 1 3,100 -1,500 Descending FlightAware UK
06:37PM 53.6860 -6.3360 330° Northwest 232 267 4,700 6,960 Climbing FlightAware
06:37PM 53.6800 -6.3530 239° Southwest 229 264 4,500 -720 Descending FlightAware
06:38PM 53.6680 -6.3680 239° Southwest 214 246 4,400 -5,700 Descending FlightAware
06:38PM 53.6601 -6.3709 239° Southwest 1 1 2,800 -6,840 Descending FlightAware UK
06:38PM 53.6487 -6.3765 239° Southwest 1 1 2,700 6,960 Descending FlightAware UK
06:38PM 53.6530 -6.3730 239° Southwest 210 242 4,200 -720 Climbing FlightAware
06:38PM 53.6321 -6.3812 239° Southwest 1 1 2,500  Descending FlightAware UK
06:38PM 53.6300 -6.3780 239° Southwest 183 211 4,200 240 Climbing FlightAware
06:39PM 53.6113 -6.3830 239° Southwest 1 1 2,600 -300 Descending FlightAware UK
06:39PM 53.6130 -6.3820 239° Southwest 181 208 4,100 -720 Climbing FlightAware
06:39PM 53.5961 -6.3831 239° Southwest 1 1 2,400 -720 Descending FlightAware UK
06:39PM 53.5910 -6.3740 239° Southwest 177 204 3,800 -840 Climbing FlightAware
06:39PM 53.5725 -6.3605 239° Southwest 1 1 2,000 -840 Descending FlightAware UK
06:40PM 53.5680 -6.3580 239° Southwest 176 203 3,400 -1,200 Climbing FlightAware
06:40PM 53.5490 -6.3431 239° Southwest 1 1 1,400 -1,200 Descending FlightAware UK
06:40PM 53.5490 -6.3430 239° Southwest 175 201 2,900 1,680 Climbing FlightAware
06:40PM 53.5260 -6.3260 156° South 177 204 2,400 -900 Descending FlightAware
06:41PM 53.5060 -6.3120 157° South 163 188 2,100 -900 Descending FlightAware
06:41PM 53.4870 -6.2980 156° South 139 160 1,600 -900 Descending FlightAware
06:42PM 53.4690 -6.2860 158° South 124 143 1,200 -660 Descending FlightAware
06:42PM 53.4560 -6.2760 155° Southeast 122 140 1,000 -420 Descending FlightAware
06:43PM 53.4380 -6.2620 155° Southeast 122 140 800 -300 Descending FlightAware
06:46PM 53.4213 -6.2701 196° South  Level Estimated